timestamp,wind_dir_avg,wind_spd_max_dir,wind_spd_avg,wind_spd_gust,battery_voltage,lat,long
2019-02-01 00:00:00+00:00,271.0,272.0,16.64,19.3,,47.59359,-54.27349
2019-02-01 00:10:00+00:00,269.0,272.0,16.53,19.73,,47.59359,-54.27349
2019-02-01 00:20:00+00:00,269.0,267.0,16.69,19.42,,47.59359,-54.27349
2019-02-01 00:30:00+00:00,261.0,264.0,16.93,19.68,,47.59359,-54.27349
2019-02-01 00:40:00+00:00,275.0,275.0,13.98,16.9,,47.59359,-54.27349
2019-02-01 00:50:00+00:00,272.0,270.0,14.7,17.08,,47.59359,-54.27349
2019-02-01 01:00:00+00:00,275.0,281.0,11.97,15.42,,47.59359,-54.27349
2019-02-01 01:10:00+00:00,271.0,277.0,14.56,16.81,,47.59359,-54.27349
2019-02-01 01:20:00+00:00,278.0,277.0,13.0,15.96,,47.59359,-54.27349
2019-02-01 01:30:00+00:00,272.0,282.0,13.19,15.26,,47.59359,-54.27349
2019-02-01 01:40:00+00:00,270.0,270.0,12.31,14.02,,47.59359,-54.27349
2019-02-01 01:50:00+00:00,261.0,252.0,12.44,13.9,,47.59359,-54.27349
2019-02-01 02:00:00+00:00,266.0,265.0,10.5,12.84,,47.59359,-54.27349
2019-02-01 02:10:00+00:00,273.0,274.0,12.56,15.41,,47.59359,-54.27349
2019-02-01 02:20:00+00:00,267.0,265.0,11.78,14.26,,47.59359,-54.27349
2019-02-01 02:30:00+00:00,276.0,268.0,12.3,14.66,,47.59359,-54.27349
2019-02-01 02:40:00+00:00,264.0,270.0,12.45,14.51,,47.59359,-54.27349
2019-02-01 02:50:00+00:00,274.0,273.0,13.98,15.12,,47.59359,-54.27349
2019-02-01 03:00:00+00:00,272.0,273.0,11.71,14.09,,47.59359,-54.27349
2019-02-01 03:10:00+00:00,266.0,264.0,13.17,16.41,,47.59359,-54.27349
2019-02-01 03:20:00+00:00,287.0,289.0,13.16,14.62,,47.59359,-54.27349
2019-02-01 03:30:00+00:00,267.0,262.0,11.26,14.29,,47.59359,-54.27349
2019-02-01 03:40:00+00:00,274.0,271.0,9.26,13.13,,47.59359,-54.27349
2019-02-01 03:50:00+00:00,268.0,262.0,7.52,11.62,,47.59359,-54.27349
2019-02-01 04:00:00+00:00,276.0,283.0,7.41,12.37,,47.59359,-54.27349
2019-02-01 04:10:00+00:00,289.0,290.0,7.17,9.88,,47.59359,-54.27349
2019-02-01 04:20:00+00:00,292.0,299.0,6.69,9.49,,47.59359,-54.27349
2019-02-01 04:30:00+00:00,335.0,332.0,6.14,7.58,,47.59359,-54.27349
2019-02-01 04:40:00+00:00,318.0,321.0,5.28,6.76,,47.59359,-54.27349
2019-02-01 04:50:00+00:00,345.0,322.0,5.08,7.17,,47.59359,-54.27349
2019-02-01 05:00:00+00:00,351.0,354.0,5.6,6.13,,47.59359,-54.27349
2019-02-01 05:10:00+00:00,8.0,17.0,5.63,7.08,,47.59359,-54.27349
2019-02-01 05:20:00+00:00,10.0,9.0,3.6,4.85,,47.59359,-54.27349
2019-02-01 05:30:00+00:00,290.0,257.0,2.89,4.51,,47.59359,-54.27349
2019-02-01 05:40:00+00:00,322.0,313.0,4.13,5.48,,47.59359,-54.27349
2019-02-01 05:50:00+00:00,280.0,294.0,3.94,6.36,,47.59359,-54.27349
2019-02-01 06:00:00+00:00,252.0,256.0,9.39,12.87,,47.59359,-54.27349
2019-02-01 06:10:00+00:00,254.0,255.0,13.41,14.9,,47.59359,-54.27349
2019-02-01 06:20:00+00:00,260.0,265.0,14.31,16.91,,47.59359,-54.27349
2019-02-01 06:30:00+00:00,259.0,261.0,14.46,16.84,,47.59359,-54.27349
2019-02-01 06:40:00+00:00,259.0,255.0,13.66,16.64,,47.59359,-54.27349
2019-02-01 06:50:00+00:00,256.0,265.0,14.6,16.42,,47.59359,-54.27349
2019-02-01 07:00:00+00:00,257.0,260.0,14.19,17.06,,47.59359,-54.27349
2019-02-01 07:10:00+00:00,254.0,251.0,14.53,16.01,,47.59359,-54.27349
2019-02-01 07:20:00+00:00,255.0,253.0,15.41,17.89,,47.59359,-54.27349
2019-02-01 07:30:00+00:00,259.0,260.0,13.4,16.15,,47.59359,-54.27349
2019-02-01 07:40:00+00:00,258.0,263.0,13.97,16.65,,47.59359,-54.27349
2019-02-01 07:50:00+00:00,258.0,265.0,13.48,15.7,,47.59359,-54.27349
2019-02-01 08:00:00+00:00,255.0,246.0,16.13,18.14,,47.59359,-54.27349
2019-02-01 08:10:00+00:00,264.0,263.0,14.48,16.34,,47.59359,-54.27349
2019-02-01 08:20:00+00:00,260.0,261.0,15.46,18.59,,47.59359,-54.27349
2019-02-01 08:30:00+00:00,253.0,252.0,13.55,16.73,,47.59359,-54.27349
2019-02-01 08:40:00+00:00,252.0,251.0,13.74,16.87,,47.59359,-54.27349
2019-02-01 08:50:00+00:00,258.0,259.0,15.31,17.1,,47.59359,-54.27349
2019-02-01 09:00:00+00:00,255.0,261.0,16.06,17.97,,47.59359,-54.27349
2019-02-01 09:10:00+00:00,258.0,266.0,12.04,15.74,,47.59359,-54.27349
2019-02-01 09:20:00+00:00,256.0,256.0,14.47,16.67,,47.59359,-54.27349
2019-02-01 09:30:00+00:00,267.0,262.0,15.05,19.59,,47.59359,-54.27349
2019-02-01 09:40:00+00:00,270.0,268.0,11.29,14.77,,47.59359,-54.27349
2019-02-01 09:50:00+00:00,256.0,257.0,11.22,13.45,,47.59359,-54.27349
2019-02-01 10:00:00+00:00,261.0,262.0,13.78,16.39,,47.59359,-54.27349
2019-02-01 10:10:00+00:00,263.0,266.0,13.29,15.0,,47.59359,-54.27349
2019-02-01 10:20:00+00:00,257.0,254.0,10.1,12.82,,47.59359,-54.27349
2019-02-01 10:30:00+00:00,266.0,278.0,7.53,12.64,,47.59359,-54.27349
2019-02-01 10:40:00+00:00,267.0,268.0,10.77,13.01,,47.59359,-54.27349
2019-02-01 10:50:00+00:00,264.0,268.0,12.72,15.0,,47.59359,-54.27349
2019-02-01 11:00:00+00:00,262.0,258.0,11.57,15.31,,47.59359,-54.27349
2019-02-01 11:10:00+00:00,270.0,270.0,11.11,13.64,,47.59359,-54.27349
2019-02-01 11:20:00+00:00,282.0,280.0,13.0,15.51,,47.59359,-54.27349
2019-02-01 11:30:00+00:00,276.0,281.0,10.3,14.56,,47.59359,-54.27349
2019-02-01 11:40:00+00:00,262.0,260.0,13.89,15.92,,47.59359,-54.27349
2019-02-01 11:50:00+00:00,262.0,258.0,14.09,17.93,,47.59359,-54.27349
2019-02-01 12:00:00+00:00,267.0,270.0,10.77,13.64,,47.59359,-54.27349
2019-02-01 12:10:00+00:00,274.0,270.0,14.42,15.75,,47.59359,-54.27349
2019-02-01 12:20:00+00:00,264.0,264.0,10.99,14.24,,47.59359,-54.27349
2019-02-01 12:30:00+00:00,263.0,263.0,12.95,14.64,,47.59359,-54.27349
2019-02-01 12:40:00+00:00,281.0,268.0,12.84,15.12,,47.59359,-54.27349
2019-02-01 12:50:00+00:00,262.0,256.0,10.71,12.84,,47.59359,-54.27349
2019-02-01 13:00:00+00:00,256.0,253.0,10.29,12.77,,47.59359,-54.27349
2019-02-01 13:10:00+00:00,270.0,261.0,9.37,11.73,,47.59359,-54.27349
2019-02-01 13:20:00+00:00,250.0,248.0,15.51,19.32,,47.59359,-54.27349
2019-02-01 13:30:00+00:00,262.0,268.0,12.59,18.0,,47.59359,-54.27349
2019-02-01 13:40:00+00:00,257.0,262.0,12.56,13.71,,47.59359,-54.27349
2019-02-01 13:50:00+00:00,250.0,242.0,15.32,18.47,,47.59359,-54.27349
2019-02-01 14:00:00+00:00,252.0,250.0,18.2,23.14,,47.59359,-54.27349
2019-02-01 14:10:00+00:00,251.0,258.0,14.91,17.63,,47.59359,-54.27349
2019-02-01 14:20:00+00:00,255.0,257.0,16.82,22.56,,47.59359,-54.27349
2019-02-01 14:30:00+00:00,256.0,261.0,14.72,18.7,,47.59359,-54.27349
2019-02-01 14:40:00+00:00,255.0,251.0,14.41,16.63,,47.59359,-54.27349
2019-02-01 14:50:00+00:00,261.0,265.0,13.97,17.97,,47.59359,-54.27349
2019-02-01 15:00:00+00:00,261.0,267.0,17.68,21.03,,47.59359,-54.27349
2019-02-01 15:10:00+00:00,257.0,253.0,13.74,15.91,,47.59359,-54.27349
2019-02-01 15:20:00+00:00,260.0,267.0,11.9,14.26,,47.59359,-54.27349
2019-02-01 15:30:00+00:00,262.0,260.0,14.66,16.73,,47.59359,-54.27349
2019-02-01 15:40:00+00:00,258.0,257.0,16.96,19.0,,47.59359,-54.27349
2019-02-01 15:50:00+00:00,258.0,253.0,15.72,19.33,,47.59359,-54.27349
2019-02-01 16:00:00+00:00,259.0,257.0,15.53,16.71,,47.59359,-54.27349
2019-02-01 16:10:00+00:00,263.0,263.0,15.72,21.53,,47.59359,-54.27349
2019-02-01 16:20:00+00:00,259.0,263.0,16.14,19.76,,47.59359,-54.27349
2019-02-01 16:30:00+00:00,263.0,256.0,16.03,21.04,,47.59359,-54.27349
2019-02-01 16:40:00+00:00,263.0,259.0,14.85,17.86,,47.59359,-54.27349
2019-02-01 16:50:00+00:00,268.0,270.0,15.44,18.13,,47.59359,-54.27349
2019-02-01 17:00:00+00:00,265.0,261.0,13.54,16.08,,47.59359,-54.27349
2019-02-01 17:10:00+00:00,266.0,256.0,11.78,17.5,,47.59359,-54.27349
2019-02-01 17:20:00+00:00,262.0,263.0,12.87,18.42,,47.59359,-54.27349
2019-02-01 17:30:00+00:00,270.0,267.0,11.31,14.4,,47.59359,-54.27349
2019-02-01 17:40:00+00:00,267.0,256.0,11.75,14.37,,47.59359,-54.27349
2019-02-01 17:50:00+00:00,268.0,263.0,16.87,20.81,,47.59359,-54.27349
2019-02-01 18:00:00+00:00,270.0,276.0,15.57,18.1,,47.59359,-54.27349
2019-02-01 18:10:00+00:00,261.0,260.0,16.52,20.33,,47.59359,-54.27349
2019-02-01 18:20:00+00:00,263.0,261.0,15.59,17.94,,47.59359,-54.27349
2019-02-01 18:30:00+00:00,264.0,264.0,15.77,19.4,,47.59359,-54.27349
2019-02-01 18:40:00+00:00,269.0,270.0,15.33,19.12,,47.59359,-54.27349
2019-02-01 18:50:00+00:00,273.0,274.0,16.43,20.02,,47.59359,-54.27349
2019-02-01 19:00:00+00:00,267.0,265.0,14.91,18.37,,47.59359,-54.27349
2019-02-01 19:10:00+00:00,259.0,254.0,13.61,16.1,,47.59359,-54.27349
2019-02-01 19:20:00+00:00,260.0,262.0,11.67,13.56,,47.59359,-54.27349
2019-02-01 19:30:00+00:00,263.0,258.0,8.81,10.72,,47.59359,-54.27349
2019-02-01 19:40:00+00:00,252.0,253.0,10.16,12.89,,47.59359,-54.27349
2019-02-01 19:50:00+00:00,265.0,255.0,10.69,12.57,,47.59359,-54.27349
2019-02-01 20:00:00+00:00,260.0,257.0,11.04,13.3,,47.59359,-54.27349
2019-02-01 20:10:00+00:00,253.0,255.0,9.04,12.41,,47.59359,-54.27349
2019-02-01 20:20:00+00:00,256.0,255.0,10.48,13.6,,47.59359,-54.27349
2019-02-01 20:30:00+00:00,254.0,256.0,13.43,15.26,,47.59359,-54.27349
2019-02-01 20:40:00+00:00,257.0,255.0,11.1,13.86,,47.59359,-54.27349
2019-02-01 20:50:00+00:00,252.0,255.0,16.1,17.85,,47.59359,-54.27349
2019-02-01 21:00:00+00:00,260.0,256.0,12.74,14.71,,47.59359,-54.27349
2019-02-01 21:10:00+00:00,253.0,252.0,14.46,15.58,,47.59359,-54.27349
2019-02-01 21:20:00+00:00,259.0,260.0,15.22,18.25,,47.59359,-54.27349
2019-02-01 21:30:00+00:00,255.0,260.0,13.95,15.52,,47.59359,-54.27349
2019-02-01 21:40:00+00:00,254.0,247.0,13.48,15.58,,47.59359,-54.27349
2019-02-01 21:50:00+00:00,263.0,266.0,11.94,13.24,,47.59359,-54.27349
2019-02-01 22:00:00+00:00,257.0,258.0,12.94,14.75,,47.59359,-54.27349
2019-02-01 22:10:00+00:00,250.0,248.0,12.91,15.35,,47.59359,-54.27349
2019-02-01 22:20:00+00:00,249.0,248.0,13.75,15.75,,47.59359,-54.27349
2019-02-01 22:30:00+00:00,258.0,260.0,9.55,14.88,,47.59359,-54.27349
2019-02-01 22:40:00+00:00,246.0,240.0,6.87,9.02,,47.59359,-54.27349
2019-02-01 22:50:00+00:00,249.0,256.0,7.16,14.01,,47.59359,-54.27349
2019-02-01 23:00:00+00:00,261.0,267.0,11.43,15.39,,47.59359,-54.27349
2019-02-01 23:10:00+00:00,270.0,271.0,9.61,13.12,,47.59359,-54.27349
2019-02-01 23:20:00+00:00,262.0,267.0,9.22,14.1,,47.59359,-54.27349
2019-02-01 23:30:00+00:00,256.0,259.0,10.88,13.05,,47.59359,-54.27349
2019-02-01 23:40:00+00:00,266.0,267.0,13.68,15.86,,47.59359,-54.27349
2019-02-01 23:50:00+00:00,264.0,267.0,12.05,14.38,,47.59359,-54.27349
